Wind_Speed
5 2 1 1 3 6 6 7 7 9 11 11 12 13 14 16 16 17 17 18 18 19 20 20 21 23 24 25 25 25 27 27 27 28 29 29 29 29 30 30 30 30 29 29
3 1 3 4 6 7 5 5 7 9 9 10 12 13 14 15 18 19 18 19 20 19 20 20 21 24 25 26 26 27 27 28 28 29 30 30 30 31 31 30 30 30 29 28
1 3 5 5 6 7 6 5 7 10 10 9 11 14 15 16 20 20 19 20 20 20 21 21 22 24 25 26 28 28 28 28 29 29 29 30 32 32 31 30 29 28 28 27
3 6 7 7 7 7 7 7 8 10 10 9 10 14 16 18 20 21 21 22 23 22 22 23 24 25 26 28 28 28 29 29 29 29 30 31 31 31 30 28 28 27 26 25
4 6 6 6 7 8 8 8 8 9 9 9 10 14 18 19 19 20 21 23 25 24 24 24 25 26 27 28 28 29 30 30 30 30 30 30 29 29 29 27 26 25 23 23
6 8 7 7 8 9 8 10 9 9 10 12 11 14 19 21 21 22 22 23 26 26 26 25 25 26 27 28 28 29 30 30 29 29 29 29 27 27 26 26 25 23 22 22
7 9 9 9 8 8 9 9 10 10 11 12 11 13 19 21 22 23 24 26 27 27 27 27 27 27 28 28 29 30 30 29 29 28 28 28 27 26 25 24 23 22 21 22
6 8 10 10 10 9 10 9 10 11 12 12 11 15 20 20 23 24 25 26 27 28 27 27 28 27 27 28 28 29 29 28 28 27 27 27 26 25 24 23 22 21 21 21
7 8 10 11 11 10 10 8 9 13 13 12 13 17 19 21 23 24 25 26 27 28 27 27 27 27 27 28 28 28 28 28 27 26 26 26 25 24 23 22 21 20 20 21
9 10 9 11 10 9 9 11 11 12 13 13 13 15 19 20 23 24 25 25 26 27 27 26 26 26 27 27 28 28 27 26 26 25 24 24 24 23 22 21 21 21 21 20
12 11 9 9 10 10 11 12 12 12 12 13 15 17 20 22 24 25 25 26 27 26 25 25 25 26 26 26 26 26 25 25 25 24 23 23 23 22 21 21 21 21 20 20
13 11 10 10 11 11 12 12 13 14 14 15 16 18 21 23 24 23 24 25 25 25 25 25 26 25 25 25 25 25 24 24 23 22 22 22 22 22 21 21 21 20 20 19
13 13 12 11 11 12 13 13 13 15 17 16 16 18 22 24 23 22 23 24 24 24 25 25 25 24 24 24 24 24 23 22 22 21 20 21 22 21 21 21 20 19 19 19
15 15 13 12 12 14 15 14 14 16 17 18 18 19 22 24 23 22 22 23 24 24 25 25 25 24 24 23 23 22 21 20 20 20 20 21 21 21 20 20 19 18 18 19
17 16 15 15 15 16 17 16 16 17 18 19 19 19 20 24 23 23 23 23 24 24 24 24 24 23 23 22 22 21 20 20 20 19 20 21 21 20 20 19 18 18 18 17
19 18 17 16 16 16 17 17 17 17 18 19 20 20 21 22 23 23 23 23 23 23 23 23 22 22 21 21 21 20 20 20 20 19 19 19 20 20 19 18 18 17 16 16
20 19 19 18 17 18 19 17 17 18 19 20 20 20 21 21 21 22 22 22 22 22 22 22 22 21 20 19 20 20 20 20 19 19 18 18 18 18 17 17 15 16 16 16
20 20 19 19 19 19 19 18 19 19 20 21 22 22 22 22 22 21 22 22 21 21 21 21 20 20 20 20 20 19 19 19 18 18 17 17 17 17 16 15 15 15 16 16
21 20 20 19 19 20 20 19 20 21 21 21 22 22 22 22 22 22 22 22 21 20 20 20 20 20 20 19 19 19 18 18 17 16 16 16 16 16 15 14 13 15 16 16
21 21 21 21 21 21 21 21 22 22 23 23 23 22 22 22 22 22 22 22 21 20 20 20 20 20 20 19 18 18 17 16 16 15 15 16 16 16 16 15 15 15 15 15
23 23 23 23 23 24 23 23 23 23 24 24 24 23 23 23 22 22 22 21 21 20 20 19 19 19 19 18 18 17 16 16 15 15 15 16 15 15 15 15 15 15 15 14
24 24 24 25 25 26 25 25 24 24 25 25 25 25 25 24 23 22 22 21 21 20 19 19 19 18 18 18 17 16 15 15 15 15 16 16 15 14 14 14 14 14 14 15
26 26 27 27 27 27 27 27 27 27 26 27 26 26 26 25 24 23 22 20 20 19 18 18 18 18 18 17 16 15 15 14 14 14 14 14 14 13 13 13 13 13 14 15
27 27 27 28 28 29 29 29 28 28 28 28 28 27 26 25 24 23 22 21 20 19 18 18 18 18 17 17 16 15 14 14 13 13 12 12 12 13 13 13 12 13 14 15
28 28 29 29 29 29 31 30 30 30 30 29 27 27 26 25 24 23 22 22 21 20 19 18 17 17 16 15 14 14 14 13 13 12 12 11 12 12 12 12 12 13 14 14
30 30 29 30 30 31 31 31 31 31 30 29 28 27 27 26 25 24 23 22 21 20 18 17 16 16 15 14 14 14 14 13 12 11 11 11 12 11 10 10 11 12 13 14
Wind_Direction
140 116 10 299 270 265 263 259 268 281 287 285 278 281 284 288 297 298 299 302 302 304 302 303 305 306 307 308 311 310 311 310 309 308 307 305 303 301 300 299 296 296 295 295
131 295 303 289 279 279 279 279 295 292 288 286 284 286 292 295 296 300 300 301 305 307 304 304 305 306 308 310 311 312 313 311 309 309 308 306 305 303 301 299 298 295 294 294
289 277 279 280 287 302 320 308 296 290 294 298 293 290 291 292 295 298 301 303 306 304 306 307 305 306 310 313 314 312 312 311 312 311 310 308 306 306 304 301 298 296 294 293
280 282 281 290 301 309 312 306 299 298 304 300 298 288 283 283 289 295 298 303 306 308 305 307 307 307 310 313 314 314 313 313 313 312 312 311 310 308 305 300 298 297 295 294
272 280 287 299 300 294 296 295 298 312 308 303 286 275 279 285 288 295 302 304 307 309 307 306 306 307 310 312 313 315 315 314 313 314 314 314 314 311 308 307 304 303 301 298
277 285 293 296 290 293 299 308 313 319 308 295 288 278 284 291 294 301 306 304 307 309 309 309 308 308 310 312 313 314 314 315 316 316 316 316 316 315 313 311 311 309 305 301
297 302 299 299 302 303 300 309 317 309 297 293 288 285 286 294 295 298 301 305 309 310 310 312 312 311 312 313 315 314 312 314 317 318 318 319 317 316 315 315 315 311 307 304
290 289 289 299 302 298 299 308 305 298 297 302 302 289 290 299 298 298 302 306 308 310 311 312 313 314 314 314 315 316 316 316 318 319 319 318 318 318 319 318 317 314 310 307
286 279 280 293 299 301 306 305 298 302 308 304 293 288 289 295 298 301 304 306 308 309 311 313 314 314 315 315 316 317 318 319 320 320 321 321 321 319 319 319 319 316 314 310
283 284 285 296 305 309 309 309 305 308 309 308 306 293 291 299 302 305 304 306 308 311 312 314 315 315 315 316 317 318 318 320 321 320 322 323 324 322 322 321 320 318 316 313
285 289 292 296 302 304 302 305 307 305 300 298 302 302 301 301 304 307 309 309 309 313 314 316 316 316 317 317 319 322 321 322 323 325 325 327 328 327 326 325 324 322 319 318
287 290 288 292 294 295 295 299 304 306 306 304 303 300 302 304 307 309 310 310 311 312 314 316 317 317 318 319 321 322 322 322 324 326 326 328 330 329 326 324 324 324 324 323
286 287 289 295 299 299 303 309 309 308 309 309 308 303 304 306 309 311 311 312 313 315 318 319 321 321 320 322 322 323 322 322 325 326 325 327 330 330 328 325 326 327 326 325
285 285 288 287 288 292 298 303 300 299 303 306 306 303 305 309 314 316 316 315 315 317 320 322 322 322 321 324 326 328 326 325 327 326 325 327 328 329 330 332 330 330 329 328
283 284 287 288 286 287 290 294 293 296 300 301 305 305 306 311 318 319 322 320 319 319 320 323 323 323 323 325 327 328 327 327 328 328 326 327 328 329 329 330 331 333 333 333
283 283 284 284 285 286 288 290 291 295 298 299 304 307 311 312 316 319 322 323 323 322 322 324 325 325 326 327 328 329 329 328 328 328 328 328 329 329 331 331 332 335 336 335
283 285 284 284 285 286 288 295 296 297 299 300 306 310 311 313 317 321 323 324 325 325 327 328 328 328 328 329 329 330 331 332 331 330 329 330 332 332 333 336 339 340 341 341
281 282 282 284 286 285 290 293 294 295 295 299 303 308 309 311 315 318 320 324 328 329 330 331 333 334 334 333 334 333 333 333 333 334 334 333 333 335 336 339 340 341 343 347
278 280 280 281 284 287 291 293 294 295 298 301 302 306 307 309 312 316 319 323 327 330 332 332 332 333 335 334 335 335 334 335 335 338 340 340 341 344 342 340 342 345 347 347
275 277 278 278 280 280 285 288 291 292 295 300 303 305 305 305 308 314 319 323 325 328 330 331 332 332 333 335 336 335 335 337 340 344 345 344 344 347 349 350 348 348 349 348
276 277 278 278 279 279 283 285 288 290 294 297 300 302 301 301 304 310 314 316 320 323 325 329 331 331 333 334 335 336 337 340 341 343 345 346 347 348 352 354 353 353 354 354
271 273 276 278 278 279 283 284 286 288 291 294 295 296 297 298 300 303 306 309 313 316 319 323 327 329 331 333 335 335 337 338 340 341 343 347 349 351 352 355 356 358 359 359
268 270 273 276 278 279 279 282 284 286 288 291 292 293 295 295 297 298 301 304 308 311 313 316 319 324 327 329 330 331 332 334 337 340 342 347 352 353 356 358 359 1 2 2
268 269 271 273 274 276 279 281 282 284 286 290 292 292 292 292 293 295 297 299 303 305 307 309 313 318 321 324 324 326 329 332 336 339 343 347 351 353 355 356 -0 3 3 5
265 267 268 270 271 273 276 280 281 284 285 286 287 288 288 288 290 292 293 295 297 299 301 304 308 312 317 320 322 324 325 328 331 333 336 341 346 350 354 357 0 2 3 5
264 266 268 270 271 273 276 279 281 282 283 284 285 286 286 286 287 288 289 290 292 295 297 300 304 307 310 314 318 320 321 324 327 329 333 335 340 345 354 360 0 2 4 6
Height
5858 5859 5860 5861 5862 5862 5863 5863 5862 5863 5861 5860 5859 5857 5856 5854 5853 5851 5849 5847 5845 5844 5842 5841 5839 5837 5834 5831 5827 5825 5822 5819 5816 5813 5810 5806 5802 5800 5797 5794 5791 5789 5786 5784
5861 5860 5862 5862 5862 5862 5860 5860 5861 5861 5859 5857 5856 5855 5853 5852 5850 5848 5846 5845 5843 5841 5839 5838 5835 5832 5830 5827 5823 5821 5817 5814 5811 5807 5803 5799 5795 5792 5790 5787 5784 5781 5779 5777
5862 5863 5862 5862 5862 5861 5860 5860 5860 5859 5857 5856 5855 5853 5851 5849 5846 5845 5843 5842 5840 5838 5836 5834 5831 5828 5825 5822 5819 5816 5812 5809 5805 5801 5798 5793 5788 5784 5782 5779 5776 5773 5771 5769
5861 5862 5861 5861 5860 5860 5860 5860 5858 5856 5855 5854 5854 5852 5849 5846 5844 5842 5841 5839 5837 5835 5833 5830 5827 5824 5821 5818 5814 5810 5807 5803 5799 5795 5791 5787 5782 5778 5775 5772 5769 5766 5764 5762
5862 5862 5861 5860 5860 5858 5858 5857 5856 5854 5853 5852 5851 5850 5846 5843 5841 5839 5838 5836 5834 5831 5828 5826 5823 5820 5816 5813 5810 5806 5802 5798 5794 5790 5785 5780 5776 5772 5769 5765 5762 5759 5757 5755
5861 5860 5859 5859 5858 5857 5856 5855 5854 5852 5852 5851 5849 5847 5844 5841 5839 5837 5835 5833 5830 5827 5824 5821 5818 5815 5811 5808 5804 5801 5797 5793 5789 5784 5779 5775 5771 5767 5764 5760 5756 5754 5751 5749
5860 5859 5858 5857 5856 5856 5854 5854 5852 5851 5850 5848 5846 5844 5841 5837 5837 5835 5832 5829 5826 5823 5820 5816 5813 5810 5807 5803 5799 5795 5791 5788 5783 5779 5774 5770 5766 5762 5759 5755 5751 5748 5746 5744
5858 5859 5857 5856 5855 5853 5852 5852 5852 5850 5848 5846 5844 5842 5838 5834 5833 5831 5829 5826 5823 5819 5816 5813 5809 5805 5802 5798 5794 5790 5786 5782 5778 5774 5770 5765 5761 5757 5754 5750 5747 5744 5741 5739
5857 5857 5855 5854 5853 5852 5851 5850 5850 5847 5846 5844 5842 5838 5834 5831 5830 5828 5825 5822 5819 5816 5812 5809 5805 5801 5797 5793 5789 5785 5781 5777 5773 5769 5765 5761 5757 5753 5749 5746 5743 5740 5737 5734
5855 5855 5854 5853 5852 5850 5849 5848 5846 5845 5843 5842 5841 5836 5830 5828 5827 5825 5821 5818 5815 5812 5808 5804 5801 5797 5793 5789 5785 5780 5776 5773 5769 5765 5761 5757 5753 5749 5745 5742 5739 5735 5732 5729
5853 5852 5852 5851 5850 5849 5847 5846 5844 5843 5841 5840 5837 5835 5829 5827 5824 5821 5818 5814 5811 5808 5804 5800 5796 5792 5788 5785 5780 5776 5772 5768 5765 5761 5757 5754 5750 5745 5742 5739 5735 5732 5729 5725
5850 5849 5848 5848 5847 5846 5845 5843 5842 5840 5838 5836 5834 5834 5826 5824 5821 5818 5815 5811 5807 5804 5800 5796 5792 5788 5784 5780 5776 5772 5769 5765 5761 5758 5754 5751 5747 5743 5739 5736 5732 5729 5726 5723
5847 5847 5846 5845 5846 5844 5842 5840 5838 5837 5835 5832 5831 5830 5823 5820 5817 5814 5810 5807 5803 5799 5795 5791 5787 5783 5780 5776 5773 5769 5765 5762 5758 5755 5752 5749 5745 5741 5737 5733 5729 5726 5723 5720
5844 5843 5844 5844 5842 5840 5839 5838 5836 5835 5832 5830 5828 5824 5819 5816 5813 5810 5806 5803 5799 5795 5791 5787 5783 5779 5776 5772 5768 5765 5762 5758 5755 5753 5749 5746 5743 5739 5735 5731 5728 5724 5721 5718
5840 5840 5839 5838 5838 5837 5836 5835 5833 5832 5830 5827 5824 5820 5817 5812 5809 5806 5803 5799 5796 5792 5788 5784 5780 5776 5772 5769 5765 5762 5759 5756 5752 5750 5747 5743 5740 5736 5733 5729 5726 5722 5719 5715
5836 5836 5835 5834 5834 5833 5832 5831 5829 5828 5825 5823 5820 5817 5814 5810 5807 5803 5800 5796 5792 5788 5784 5780 5777 5773 5769 5766 5763 5760 5756 5753 5750 5747 5744 5741 5738 5734 5731 5728 5724 5721 5717 5714
5831 5831 5830 5830 5829 5828 5827 5827 5825 5823 5821 5819 5816 5814 5810 5806 5804 5800 5796 5792 5789 5785 5781 5777 5774 5770 5766 5763 5760 5757 5754 5750 5747 5744 5742 5739 5736 5732 5729 5726 5723 5720 5716 5713
5827 5826 5825 5825 5825 5823 5825 5822 5821 5819 5817 5815 5812 5809 5806 5802 5800 5797 5793 5790 5786 5782 5778 5775 5771 5768 5764 5761 5758 5755 5751 5748 5745 5742 5740 5737 5734 5731 5728 5724 5722 5719 5715 5712
5822 5821 5821 5820 5819 5819 5819 5817 5816 5814 5812 5810 5808 5805 5802 5798 5796 5793 5790 5787 5783 5780 5776 5773 5769 5766 5762 5759 5756 5753 5750 5747 5744 5741 5738 5736 5733 5729 5726 5723 5721 5718 5715 5712
5816 5816 5816 5815 5814 5814 5814 5812 5810 5809 5807 5805 5802 5800 5798 5795 5793 5790 5786 5783 5780 5777 5774 5771 5767 5764 5760 5757 5754 5752 5749 5746 5743 5740 5738 5735 5732 5729 5726 5723 5720 5717 5714 5711
5810 5809 5809 5809 5808 5807 5808 5806 5805 5805 5803 5800 5797 5795 5793 5790 5788 5786 5783 5780 5777 5774 5771 5768 5765 5762 5759 5756 5753 5750 5747 5744 5742 5739 5737 5734 5731 5728 5725 5723 5720 5717 5714 5711
5804 5804 5803 5803 5802 5803 5801 5800 5799 5798 5796 5794 5792 5790 5788 5786 5783 5781 5779 5776 5774 5771 5769 5766 5763 5760 5757 5754 5751 5749 5746 5744 5741 5739 5736 5733 5731 5728 5726 5723 5720 5717 5714 5711
5798 5798 5797 5797 5798 5795 5794 5793 5792 5791 5790 5788 5786 5784 5782 5780 5778 5776 5774 5772 5770 5768 5765 5763 5760 5758 5755 5752 5750 5748 5745 5742 5740 5738 5735 5733 5731 5728 5726 5723 5720 5717 5714 5711
5790 5790 5790 5789 5789 5788 5787 5785 5784 5783 5782 5781 5779 5778 5776 5774 5772 5771 5769 5767 5765 5763 5761 5759 5757 5755 5752 5750 5747 5746 5743 5741 5739 5737 5735 5733 5730 5728 5725 5723 5720 5718 5715 5711
5782 5782 5781 5781 5781 5780 5779 5778 5777 5776 5775 5773 5772 5771 5769 5767 5766 5765 5763 5762 5760 5759 5757 5755 5753 5751 5749 5747 5745 5743 5741 5739 5738 5736 5734 5732 5730 5727 5725 5722 5720 5717 5715 5711
5774 5774 5773 5773 5773 5772 5771 5770 5769 5768 5767 5766 5765 5763 5762 5761 5759 5758 5757 5756 5755 5754 5753 5751 5749 5748 5746 5744 5743 5741 5739 5737 5736 5734 5732 5730 5728 5726 5724 5722 5720 5718 5715 5712